Flag for U.S.A. Weather past 2 weeks in Lincoln, Nebraska, U.S.A.

Now
66 °F

Strong thunderstorms. Fog.


Feels Like: 66 °F
Forecast: 66 / 75 °F
Wind: 7 mph from Southeast

Location: Lincoln Municipal Airport

Current Time: Jul 2, 2015 at 2:02:11 PM

Latest Report: Jul 2, 2015 at 12:58 PM


Visibility: 0 mi

Pressure: 29.95 "Hg

Humidity: 96%

Dew point: 65 °F

Location of LincolnLocation

Historic Weather in Lincoln — Graph

°F

Lincoln temperature yesterday

Maximum temperature yesterday: 86 °F (at 2:54 PM)
Minimum temperature yesterday: 67 °F (at 5:54 AM)
Average temperature yesterday: 76 °F

Past Weeks' High & Low Weather Summary

 TemperatureHumidityPressure
High95 °F (Jun 24, 4:54 PM)97% (Jun 25, 3:54 AM)30.16 "Hg (Jun 25, 3:54 AM)
Low58 °F (Jun 23, 4:54 AM)31% (Jun 28, 11:54 AM)29.63 "Hg (Jun 22, 7:54 AM)
Average75 °F69%29.92 "Hg
* Reported Jun 17 12:54 PM — Jul 2 12:58 PM, Lincoln, Weather by CustomWeather, © 2015

Note: Actual official high and low records may vary slightly from our data, if they occured in-between our weather recording intervals... More about our weather records

Advertising

Lincoln weather history for previous 24 hours

 ConditionsComfort  
Time TempWeatherWind HumidityBarometerVisibility
12:58 PM
Thu, Jul 2
66 °FStrong thunderstorms. Fog.7 mph96%29.95 "Hg1 mi
11:54 AM67 °FLight rain. Fog.10 mph93%29.93 "Hg4 mi
10:54 AM67 °FRain. Fog.6 mph90%29.93 "Hg2 mi
9:54 AM67 °FFog.8 mph87%29.94 "Hg5 mi
8:54 AM67 °FFog.9 mph87%29.91 "Hg4 mi
7:54 AM67 °FFog.6 mph87%29.92 "Hg5 mi
6:54 AM67 °FFog.8 mph90%29.91 "Hg5 mi
5:54 AM68 °FLow clouds.7 mph87%29.92 "Hg8 mi
4:54 AM69 °FFog.9 mph87%29.90 "Hg5 mi
3:54 AM69 °FOvercast.12 mph87%29.88 "Hg7 mi
2:54 AM69 °FOvercast.8 mph87%29.88 "Hg8 mi
1:54 AM69 °FMostly cloudy.10 mph90%29.89 "Hg7 mi
12:54 AM71 °FPassing clouds.10 mph84%29.88 "Hg7 mi
11:54 PM
Wed, Jul 1
73 °FMostly cloudy.12 mph81%29.88 "Hg8 mi
10:54 PM76 °FOvercast.12 mph80%29.88 "Hg8 mi
9:54 PM78 °FOvercast.10 mph74%29.86 "Hg10 mi
8:54 PM80 °FPartly sunny.9 mph69%29.83 "Hg9 mi
7:54 PM81 °FScattered clouds.12 mph69%29.83 "Hg9 mi
6:54 PM83 °FPartly sunny.15 mph68%29.81 "Hg10 mi
5:54 PM85 °FPartly sunny.10 mph61%29.80 "Hg10 mi
4:54 PM86 °FPartly sunny.5 mph57%29.80 "Hg10 mi
3:54 PM86 °FPartly sunny.7 mph59%29.80 "Hg10 mi
2:54 PM86 °FScattered clouds.7 mph59%29.82 "Hg9 mi
Weather by CustomWeather, © 2015

See weather overviewHow to use our weather pages